Envisat - Orbit

View from above orbital plane
View from above orbital plane
View from above satellite
View from above satellite

Ground track
Ground track

The orbit data is extracted from the following two-line orbital elements,

1 27386U 02009A   13143.74284580  .00000048  00000-0  30213-4 0  4043
2 27386 098.4295 212.5268 0001170 086.5601 273.5705 14.37611101587628
Epoch (UTC): 23 May 2013 17:49:41
Eccentricity: 0.0001170
inclination: 98.4295°
perigee height: 765 km
apogee height: 767 km
right ascension of ascending node: 212.5268°
argument of perigee: 86.5601°
revolutions per day: 14.37611101
mean anomaly at epoch: 273.5705°
orbit number at epoch: 58762

The dashed part of the orbit path shows where the satellite is in the earth's shadow,  

Developed and maintained by Chris Peat, Heavens-Above GmbH. Please read the updated FAQ before sending e-mail. Imprint. DLR